Flag for Canada Weather past 2 weeks in Bathurst, New Brunswick, Canada

Now
21 °F

Clear.


Feels Like: 11 °F
Forecast: 19 / 39 °F
Wind: 9 mph from Northwest

Location: Bathurst Airport


UV Index: 3 (Moderate)

Visibility: 15 mi


Pressure: 30.59 "Hg

Humidity: 49%

Dew point: 5 °F

Location of BathurstLocation

Historic Weather in Bathurst

°F

Bathurst temperature yesterday

Maximum temperature yesterday: 52 °F (at 12:00 AM)
Minimum temperature yesterday: 23 °F (at 11:00 PM)
Average temperature yesterday: 35 °F

Past Weeks' High & Low Weather Summary

 TemperatureHumidityPressure
High57 °F (Apr 15, 3:00 PM)100% (Apr 4, 2:00 AM)30.55 "Hg (Apr 4, 2:00 AM)
Low19 °F (Apr 4, 7:00 AM)26% (Apr 13, 12:00 PM)29.14 "Hg (Apr 9, 4:00 AM)
Average36 °F71%29.90 "Hg
* Reported Midnight between Apr 1 and Apr 2 — Midnight between Apr 16 and Apr 17, Bathurst, Weather by CustomWeather, © 2014

Note: Actual official high and low records may vary slightly from our data, if they occured in-between our weather recording intervals... More about our weather records

Advertising

Historic Weather Conditions — Data for Previous 24 hours

 ConditionsComfort  
Time TempWeatherWind HumidityBarometerVisibility
12:00 AM
Apr 17
21 °FClear.8 mph49%30.55 "Hg15 mi
11:00 PM
Apr 16
23 °FClear.12 mph54%30.53 "Hg15 mi
10:00 PM25 °FClear.7 mph50%30.49 "Hg15 mi
9:00 PM27 °FSunny.10 mph43%30.42 "Hg15 mi
8:00 PM28 °FSunny.13 mph43%30.34 "Hg15 mi
7:00 PM30 °FPassing clouds.20 mph40%30.28 "Hg15 mi
6:00 PM30 °FPassing clouds.17 mph43%30.23 "Hg15 mi
5:00 PM30 °FPassing clouds.18 mph43%30.16 "Hg15 mi
4:00 PM30 °FScattered clouds.18 mph47%30.12 "Hg15 mi
3:00 PM30 °FPassing clouds.20 mph51%30.05 "Hg15 mi
2:00 PM30 °FScattered clouds.18 mph55%29.99 "Hg15 mi
1:00 PM28 °FScattered clouds.16 mph59%29.94 "Hg15 mi
12:00 PM27 °FScattered clouds.17 mph69%29.88 "Hg15 mi
11:00 AM25 °FCloudy.12 mph74%29.85 "Hg12 mi
10:00 AM27 °FLight snow. Low clouds.14 mph80%29.78 "Hg1 mi
9:00 AM30 °FLight snow. Ice fog.12 mph86%29.72 "Hg1 mi
8:00 AM34 °FSleet. Fog.10 mph93%29.64 "Hg1 mi
7:55 AM36 °FLight snow. Fog.12 mph87%29.64 "Hg1 mi
7:00 AM37 °FLight rain. Overcast.10 mph93%29.59 "Hg6 mi
6:00 AM43 °FLight rain. Overcast.7 mph87%29.56 "Hg6 mi
5:00 AM45 °FLight rain. Fog.9 mph93%29.52 "Hg6 mi
4:00 AM46 °FLight rain. Fog.10 mph87%29.50 "Hg6 mi
3:00 AM52 °FDrizzle. Fog.6 mph94%29.48 "Hg6 mi
2:00 AM52 °FDrizzle. Fog.12 mph94%29.47 "Hg6 mi
1:00 AM52 °FDrizzle. Fog.10 mph94%29.49 "Hg6 mi
Weather by CustomWeather, © 2014

See weather overview